GOKTURK 2

Last updated on Sun Apr 12 2026 00:02:35 GMT+0000 (Coordinated Universal Time)

1 39030U 12073A 26101.55470072 .00000141 00000+0 27678-4 0 9997 2 39030 97.6871 302.3106 0001389 110.0833 250.0527 14.75478752714684
UTC large
Height (km)
Speed (km/s)
/
Latitude / Longitude
Inclination (degrees)
Orbital Period (minutes)
Azimuth
Elevation
Range (km)
Doppler Factor

Next 0 passes for location: London (51.5072 / 0.1276)

Sorry there are no passes over London.
GOKTURK 2